Date String (YYYY-MM-DD hh:mm:ss) UTC,Instrument flags,Ambient pressure (hPa),Sample flow (lpm),Bypass flow (lpm),Sample temperature (°C),Ambient temperature (°C),ASC tube jacket temperature (°C),LED temperature (°C),Box temperature (°C),Sample RH (%),Span deviation,Mass concentration (μg/m³),Mass concentration (μg/m³),Mass concentration (μg/m³)
DateTimeUTC,F1_M11,P_M11,Q1_M11,Q2_M11,T1_M11,T2_M11,T3_M11,T4_M11,T5_M11,U1_M11,ZSPAN_M11,X2_M11,X0_M11,X1_M11
2022-07-03 01:00:00,,0827.1,5.00,0.00,29.3,28.1,00.0,38.0,31.3,24.1,0000.0,0003.94,0008.60,0003.23
2022-07-03 01:01:00,,0827.1,5.00,0.00,29.3,28.2,00.0,38.0,31.4,24.1,0000.0,0003.92,0008.22,0003.25
2022-07-03 01:02:00,,0827.1,5.00,0.00,29.4,28.4,00.0,38.1,31.4,24.0,0000.0,0003.87,0008.22,0003.26
2022-07-03 01:03:00,,0827.2,5.00,0.00,29.4,28.5,00.0,38.1,31.5,24.1,0000.0,0003.86,0008.58,0003.26
2022-07-03 01:04:00,,0827.2,5.00,0.00,29.5,28.4,00.0,38.1,31.5,24.1,0000.0,0003.88,0008.74,0003.28
2022-07-03 01:05:00,,0827.2,5.01,0.00,29.4,27.7,00.0,38.0,31.3,24.3,0000.0,0003.92,0008.77,0003.30
2022-07-03 01:06:00,,0827.2,5.00,0.00,29.4,27.1,00.0,38.0,31.2,24.4,0000.0,0003.93,0009.21,0003.31
2022-07-03 01:07:00,,0827.2,5.00,0.00,29.4,27.0,00.0,38.0,31.1,24.6,0000.0,0003.97,0009.46,0003.33
2022-07-03 01:08:00,,0827.2,4.99,0.00,29.3,27.1,00.0,38.0,31.1,24.6,0000.0,0003.99,0009.74,0003.35
2022-07-03 01:09:00,,0827.1,5.00,0.00,29.3,27.3,00.0,38.0,31.1,24.6,0000.0,0004.02,0009.76,0003.36
2022-07-03 01:10:00,,0827.2,5.00,0.00,29.3,27.5,00.0,38.0,31.1,24.9,0000.0,0004.06,0009.82,0003.38
2022-07-03 01:11:00,,0827.2,5.00,0.00,29.3,27.7,00.0,38.0,31.2,24.8,0000.0,0004.12,0009.93,0003.39
2022-07-03 01:12:00,,0827.2,5.00,0.00,29.3,27.8,00.0,38.0,31.3,24.9,0000.0,0004.13,0009.94,0003.41
2022-07-03 01:13:00,,0827.2,5.01,0.00,29.3,28.0,00.0,38.0,31.3,25.0,0000.0,0004.15,0009.62,0003.42
2022-07-03 01:14:00,,0827.2,5.01,0.00,29.4,28.2,00.0,38.0,31.3,24.8,0000.0,0004.18,0009.44,0003.42
2022-07-03 01:15:00,,0827.2,5.00,0.00,29.4,28.3,00.0,38.1,31.4,24.6,0000.0,0004.17,0009.32,0003.43
2022-07-03 01:16:00,,0827.2,4.99,0.00,29.4,28.4,00.0,38.1,31.4,24.6,0000.0,0004.15,0009.24,0003.44
2022-07-03 01:17:00,,0827.2,5.00,0.00,29.5,28.5,00.0,38.1,31.5,24.5,0000.0,0004.19,0008.92,0003.44
2022-07-03 01:18:00,,0827.2,5.00,0.00,29.5,27.9,00.0,38.1,31.4,24.5,0000.0,0004.23,0009.30,0003.46
2022-07-03 01:19:00,,0827.2,4.99,0.00,29.4,27.2,00.0,38.0,31.3,24.5,0000.0,0004.28,0009.13,0003.46
2022-07-03 01:20:00,,0827.2,4.99,0.00,29.4,27.0,00.0,38.0,31.2,24.6,0000.0,0004.31,0009.23,0003.47
2022-07-03 01:21:00,,0827.2,5.00,0.00,29.3,27.0,00.0,38.0,31.1,24.9,0000.0,0004.31,0009.23,0003.48
2022-07-03 01:22:00,,0827.2,5.00,0.00,29.3,27.2,00.0,38.0,31.1,24.9,0000.0,0004.27,0009.11,0003.48
2022-07-03 01:23:00,,0827.1,5.00,0.00,29.3,27.4,00.0,38.0,31.1,24.7,0000.0,0004.29,0009.15,0003.48
2022-07-03 01:24:00,,0827.2,5.00,0.00,29.3,27.6,00.0,38.0,31.2,24.7,0000.0,0004.32,0009.25,0003.48
2022-07-03 01:25:00,,0827.2,4.99,0.00,29.3,27.7,00.0,38.0,31.2,24.6,0000.0,0004.39,0009.20,0003.50
2022-07-03 01:26:00,,0827.2,5.01,0.00,29.3,27.9,00.0,38.0,31.3,24.6,0000.0,0004.41,0009.22,0003.51
2022-07-03 01:27:00,,0827.2,5.00,0.00,29.3,28.1,00.0,38.0,31.3,24.5,0000.0,0004.42,0009.35,0003.50
2022-07-03 01:28:00,,0827.2,5.00,0.00,29.4,28.2,00.0,38.1,31.4,24.2,0000.0,0004.39,0009.54,0003.50
2022-07-03 01:29:00,,0827.2,5.00,0.00,29.4,28.4,00.0,38.1,31.4,24.3,0000.0,0004.36,0009.13,0003.51
2022-07-03 01:30:00,,0827.2,5.00,0.00,29.4,28.5,00.0,38.1,31.5,24.6,0000.0,0004.34,0009.51,0003.52
2022-07-03 01:31:00,,0827.1,5.00,0.00,29.5,28.5,00.0,38.1,31.5,24.7,0000.0,0004.34,0009.44,0003.54
2022-07-03 01:32:00,,0827.1,5.00,0.00,29.5,27.8,00.0,38.1,31.4,24.3,0000.0,0004.37,0009.55,0003.56
2022-07-03 01:33:00,,0827.1,5.00,0.00,29.4,27.2,00.0,38.0,31.3,24.6,0000.0,0004.40,0009.62,0003.57
2022-07-03 01:34:00,,0827.1,5.00,0.00,29.4,27.0,00.0,38.0,31.2,24.4,0000.0,0004.43,0009.63,0003.59
2022-07-03 01:35:00,,0827.1,5.00,0.00,29.3,27.1,00.0,38.0,31.1,24.1,0000.0,0004.44,0009.75,0003.62
2022-07-03 01:36:00,,0827.1,5.00,0.00,29.3,27.2,00.0,38.0,31.1,24.4,0000.0,0004.46,0009.82,0003.63
2022-07-03 01:37:00,,0827.2,5.01,0.00,29.3,27.4,00.0,38.0,31.1,24.4,0000.0,0004.42,0009.70,0003.64
2022-07-03 01:38:00,,0827.4,5.00,0.00,29.3,27.6,00.0,38.0,31.2,24.3,0000.0,0004.47,0009.84,0003.67
2022-07-03 01:39:00,,0827.2,4.99,0.00,29.3,27.8,00.0,38.0,31.2,23.7,0000.0,0004.48,0009.58,0003.69
2022-07-03 01:40:00,,0827.3,5.00,0.00,29.3,27.9,00.0,38.0,31.3,23.7,0000.0,0004.49,0009.29,0003.69
2022-07-03 01:41:00,,0827.3,5.00,0.00,29.4,28.1,00.0,38.1,31.3,23.9,0000.0,0004.48,0009.24,0003.69
2022-07-03 01:42:00,,0827.1,5.01,0.00,29.4,28.2,00.0,38.1,31.4,23.3,0000.0,0004.49,0009.48,0003.69
2022-07-03 01:43:00,,0827.2,5.00,0.00,29.4,28.4,00.0,38.1,31.4,23.1,0000.0,0004.48,0009.46,0003.69
2022-07-03 01:44:00,,0827.1,5.00,0.00,29.5,28.5,00.0,38.1,31.5,23.1,0000.0,0004.48,0009.43,0003.69
2022-07-03 01:45:00,,0827.0,5.00,0.00,29.5,28.6,00.0,38.1,31.5,23.1,0000.0,0004.48,0009.46,0003.69
2022-07-03 01:46:00,,0827.0,5.00,0.00,29.5,28.2,00.0,38.1,31.5,23.3,0000.0,0004.48,0009.23,0003.70
2022-07-03 01:47:00,,0827.0,5.00,0.00,29.5,27.3,00.0,38.1,31.3,23.3,0000.0,0004.48,0009.15,0003.70
2022-07-03 01:48:00,,0827.1,5.00,0.00,29.4,27.0,00.0,38.0,31.2,23.4,0000.0,0004.51,0009.30,0003.70
2022-07-03 01:49:00,,0827.1,5.00,0.00,29.4,27.0,00.0,38.1,31.1,23.5,0000.0,0004.51,0009.27,0003.70
2022-07-03 01:50:00,,0827.0,4.99,0.00,29.3,27.1,00.0,38.0,31.1,23.6,0000.0,0004.56,0009.60,0003.70
2022-07-03 01:51:00,,0826.9,4.99,0.00,29.3,27.3,00.0,38.0,31.1,23.7,0000.0,0004.56,0009.65,0003.71
2022-07-03 01:52:00,,0826.9,4.99,0.00,29.3,27.5,00.0,38.0,31.2,23.7,0000.0,0004.54,0009.16,0003.71
2022-07-03 01:53:00,,0826.8,5.00,0.00,29.3,27.7,00.0,38.0,31.2,23.9,0000.0,0004.51,0009.09,0003.71
2022-07-03 01:54:00,,0827.1,4.99,0.00,29.3,27.9,00.0,38.0,31.3,24.0,0000.0,0004.49,0009.02,0003.71
2022-07-03 01:55:00,,0826.9,5.00,0.00,29.3,28.0,00.0,38.1,31.3,24.1,0000.0,0004.49,0009.02,0003.71
2022-07-03 01:56:00,,0827.0,5.00,0.00,29.4,28.2,00.0,38.1,31.4,24.1,0000.0,0004.48,0009.08,0003.71
2022-07-03 01:57:00,,0827.2,5.01,0.00,29.4,28.3,00.0,38.1,31.4,23.9,0000.0,0004.48,0009.07,0003.69
2022-07-03 01:58:00,,0827.0,5.01,0.00,29.4,28.4,00.0,38.1,31.5,24.1,0000.0,0004.43,0008.93,0003.69
2022-07-03 01:59:00,,0826.8,4.99,0.00,29.5,28.6,00.0,38.1,31.5,24.4,0000.0,0004.39,0008.95,0003.67
